Location: Newark
(51.2625°N, 13.3939°E)
Time: 11:40:27
(UTC+00:00)

deb Explorer IX - Pass Details

Date: 21 November 2019
Orbit: 546 x 1104 km, 38.8° (Epoch: 11 December)

Event Time Altitude Azimuth Distance (km) Brightness Sun altitude
Rises 23:20:36 0° 224° (SW) 3,814 - -58.3°
Reaches altitude 10° 23:24:08 10° 209° (SSW) 2,788 - -58.1°
Maximum altitude 23:28:50 20° 165° (SSE) 2,020 - -57.9°
Drops below altitude 10° 23:33:10 10° 119° (ESE) 2,530 - -57.7°
Sets 23:36:11 0° 103° (ESE) 3,361 - -57.6°
